Theta_e
334 332 332 332 335 337 339 344 345 345 342 340 340 341 345 347 349 348 347 344 343 341 340 341 345 348 342 341 338 336 334 333
334 333 334 335 337 338 341 344 347 348 344 342 340 341 344 345 347 349 348 344 344 345 341 341 339 339 340 340 333 335 334 333
339 339 339 339 340 342 342 346 348 351 349 344 341 341 342 344 346 347 347 345 347 345 344 340 340 339 342 333 337 337 332 333
341 341 341 342 344 346 345 345 351 352 351 349 345 344 344 345 345 348 348 348 348 344 343 340 340 338 337 335 334 333 333 331
342 343 344 346 346 348 349 347 351 352 354 352 349 346 345 345 347 352 349 349 350 347 342 341 341 341 338 337 334 340 332 331
344 345 347 350 350 350 351 347 349 352 352 352 350 348 346 349 356 353 349 348 347 346 342 342 340 339 339 337 330 336 333 330
344 346 347 350 352 354 354 352 347 352 353 353 354 354 348 349 351 353 350 348 345 344 343 338 342 338 342 338 331 336 333 329
343 343 344 348 353 355 357 356 353 353 351 354 352 357 350 348 349 354 349 347 344 344 339 336 340 340 339 336 336 333 333 329
341 342 344 344 348 355 357 358 359 353 349 348 348 349 349 347 348 350 349 346 343 339 334 339 340 337 337 336 333 333 329 331
342 344 345 346 345 350 355 357 358 355 351 352 350 351 349 351 350 351 348 345 342 338 338 342 342 336 337 335 335 330 329 331
340 343 345 346 346 350 353 356 358 357 356 352 353 352 351 347 347 346 347 346 343 341 341 342 342 339 334 337 337 335 326 329
337 342 344 345 346 351 355 357 359 357 358 356 355 346 341 343 345 346 347 347 343 342 343 341 342 339 342 337 335 335 333 326
337 339 344 346 348 351 354 357 358 358 357 357 351 350 346 347 347 348 352 349 345 342 343 343 342 339 342 338 336 336 331 327
333 337 342 345 348 351 353 354 356 356 355 355 355 351 349 345 345 343 343 342 345 344 343 343 342 339 340 339 338 337 336 336
330 334 335 340 344 348 351 353 353 354 354 353 353 353 352 351 348 345 344 338 339 345 345 344 340 341 339 340 340 339 338 334
329 331 333 337 341 345 348 351 352 352 352 353 353 356 348 347 350 345 342 340 341 346 346 344 341 341 340 340 336 336 336 335
327 329 332 334 340 344 345 348 351 353 352 353 355 350 347 348 347 347 346 351 343 348 344 343 342 340 338 338 335 337 335 337
329 332 335 336 337 343 347 349 348 349 351 345 341 341 340 340 341 339 342 343 342 344 344 344 342 341 340 340 340 339 337 336
329 332 335 338 338 337 345 347 347 347 342 339 337 337 336 333 334 335 340 344 345 343 343 342 341 340 341 342 341 338 336 336
328 328 331 333 337 335 342 345 349 348 345 340 336 338 334 335 336 337 340 344 347 344 342 341 340 338 338 336 333 334 333 331
Wind_Speed
14 13 13 13 11 9 11 8 8 10 10 9 6 7 6 5 5 6 3 1 5 7 6 8 8 11 5 8 3 3 7 7
13 12 11 12 11 10 9 10 6 6 7 7 7 6 5 6 7 6 3 6 4 2 4 3 2 3 2 3 4 4 4 5
13 13 11 11 12 11 8 10 9 6 4 6 5 5 6 4 5 6 3 3 1 3 3 5 2 2 2 4 2 1 4 1
13 13 12 10 12 12 11 11 10 8 7 4 5 4 5 4 4 5 4 4 2 3 3 4 2 2 3 3 3 5 1 5
14 12 13 12 11 14 11 11 12 11 9 7 6 5 5 6 5 4 4 3 4 5 3 4 0 1 1 3 2 3 4 2
12 11 9 11 11 13 12 11 13 11 10 7 6 3 4 3 2 4 5 4 2 3 2 2 2 3 3 3 3 4 8 3
10 9 10 10 10 11 13 12 12 12 9 7 6 4 4 5 4 2 6 5 4 4 0 3 2 3 3 3 5 3 8 4
11 9 8 9 10 10 11 11 9 11 8 7 6 4 5 5 6 4 5 5 4 3 2 5 4 4 4 4 7 4 6 7
10 10 10 9 10 11 11 12 11 8 8 7 8 5 7 5 5 4 5 2 1 3 4 7 6 6 4 6 5 7 6 5
14 11 9 10 11 11 12 11 12 10 8 7 3 2 2 2 3 4 4 5 5 6 6 7 5 5 5 6 7 7 7 6
14 14 12 10 11 11 11 12 12 11 10 6 4 3 2 4 4 5 7 7 7 7 8 6 4 6 5 8 8 9 7 7
8 12 12 11 11 12 12 12 13 13 12 9 8 6 6 2 1 1 3 4 6 9 8 7 6 6 7 6 7 8 8 8
12 14 13 11 11 11 11 12 13 13 13 10 8 9 5 3 2 3 4 5 6 7 5 4 4 6 7 8 7 7 7 8
10 10 12 11 12 12 12 13 13 12 12 12 9 4 5 2 4 5 6 6 7 8 8 5 5 6 8 6 9 9 9 8
12 13 12 12 13 13 12 13 13 13 13 11 8 5 3 4 4 7 4 6 4 9 10 8 8 9 10 7 8 9 9 10
12 12 11 12 12 12 13 14 14 14 12 10 7 4 5 4 4 7 6 7 7 2 7 4 7 10 10 10 7 8 10 9
13 12 11 12 14 11 12 14 13 12 11 8 5 5 8 8 8 9 7 6 8 8 6 8 10 10 9 8 8 10 9 9
12 10 11 12 12 17 12 11 12 11 10 10 9 7 10 7 7 4 6 8 10 9 8 9 10 10 12 12 11 12 12 9
12 13 15 16 16 9 13 12 11 11 13 12 9 7 8 3 2 5 6 7 9 10 10 12 11 11 11 11 12 12 11 13
9 11 8 12 14 13 14 6 12 11 11 9 8 7 6 6 5 7 10 9 9 10 11 12 12 12 12 12 12 13 13 11
Wind_Direction
154 158 159 153 158 154 145 154 163 151 148 179 167 169 157 170 174 211 76 216 168 207 156 171 160 186 198 191 180 302 4 357
147 146 148 147 156 155 145 152 176 209 148 197 167 173 176 187 186 197 175 223 159 317 355 14 274 137 197 61 54 340 26 341
151 148 156 157 157 154 172 150 171 201 215 197 199 168 199 195 166 187 268 286 49 272 17 298 333 55 113 92 177 307 162 133
159 166 166 177 159 162 171 180 165 204 212 201 197 221 160 209 195 154 192 262 118 306 229 248 215 226 144 149 89 244 170 118
173 185 169 185 176 158 177 191 169 181 220 198 215 182 211 204 197 138 231 231 156 311 261 297 59 137 34 215 217 254 251 195
175 179 195 174 201 169 187 193 175 180 201 189 226 188 242 250 68 154 191 211 216 224 244 325 218 222 200 213 223 235 275 215
170 196 195 205 195 189 186 199 191 179 196 203 230 124 231 256 203 241 165 221 219 261 337 264 216 233 216 203 226 233 250 256
169 187 190 193 195 206 197 194 210 175 188 212 213 175 218 247 245 201 163 238 220 232 130 269 239 234 188 206 246 216 266 200
181 185 176 188 195 190 200 192 186 187 197 201 220 184 223 224 242 192 214 270 92 187 218 223 228 258 246 179 224 238 227 260
190 203 195 185 189 194 193 197 181 198 193 223 249 232 245 195 191 159 202 212 198 229 247 261 212 255 199 232 237 252 217 213
189 196 192 185 181 185 189 192 178 195 203 199 199 185 237 210 172 205 207 222 224 228 236 262 282 263 203 212 229 235 231 203
182 173 175 180 174 175 176 180 175 190 202 185 203 221 246 82 230 354 213 192 233 234 227 232 247 258 259 202 228 240 246 260
154 170 171 171 167 168 169 174 177 183 186 225 184 245 166 220 224 264 226 188 216 258 240 240 231 231 247 250 239 216 243 254
157 141 157 163 166 168 172 173 178 181 188 210 208 236 269 235 218 278 244 202 188 216 241 229 220 244 256 213 239 237 240 266
157 161 176 166 162 170 170 172 176 182 190 191 197 221 220 277 265 259 327 308 228 185 216 236 237 230 243 237 226 239 234 244
173 170 176 168 168 175 172 171 179 181 186 190 191 182 231 225 230 284 327 318 308 119 203 226 233 254 232 236 237 232 235 231
184 190 192 188 165 178 178 172 180 181 185 182 162 78 31 48 5 344 321 296 270 252 258 240 230 223 236 234 239 242 242 237
192 197 198 209 194 164 179 168 179 164 195 95 99 125 139 191 171 198 282 307 303 305 292 258 248 243 230 225 234 236 237 235
201 203 207 219 169 186 151 161 177 109 123 125 134 159 207 164 273 319 283 274 272 266 264 267 262 258 259 251 247 252 241 236
332 298 264 151 243 146 125 154 117 150 145 156 171 188 228 272 313 312 292 291 280 273 269 271 274 269 266 265 265 264 257 247